User: anonymous   Login
Location: Geroldsau
(48.7259°N, 8.2466°E)
Time: 09:44:07
(UTC+00:00)
Language:

Cosmos 1782 - Orbit

View from above orbital plane
View from above orbital plane
View from above satellite
View from above satellite

Ground track
Ground track

The orbit data is extracted from the following two-line orbital elements,

1 16986U 86074A   21259.67716415  .00000353  00000-0  21134-4 0  9997
2 16986  82.5043  49.7338 0014248  75.0252 285.2552 15.07648046883502
Epoch (UTC): 16 September 2021 16:15:06
Eccentricity: 0.0014248
inclination: 82.5043°
perigee height: 533 km
apogee height: 553 km
right ascension of ascending node: 49.7338°
argument of perigee: 75.0252°
revolutions per day: 15.07648046
mean anomaly at epoch: 285.2552°
orbit number at epoch: 88350

The dashed part of the orbit path shows where the satellite is in the earth's shadow,  

DLR